Kozani, Greece

7:34 AM EEST on May 27, 2018 (GMT +0300)
Kozani

Weather History for LGKZ - October, 2013

Change the Weather History Date:

Wednesday, October 30, 2013

  Actual Average Record
Temperature  
Mean Temperature 60 °F -  
Max Temperature 71 °F - - ()
Min Temperature 50 °F - - ()
Degree Days  
Heating Degree Days 4    
Growing Degree Days 10 (Base 50)    
Moisture  
Dew Point 43 °F    
Average Humidity 59    
Maximum Humidity 71    
Minimum Humidity 38    
Precipitation  
Precipitation 0.00 in - - ()
Sea Level Pressure  
Sea Level Pressure 30.11 in    
Wind  
Wind Speed 3 mph ()    
Max Wind Speed 7 mph    
Max Gust Speed -    
Visibility 5.4 miles    
Events      
T = Trace of Precipitation, MM = Missing Value Source: Averaged Metar Reports

Daily Weather History Graph

Daily Weather History Graph

Search for Another Location

Airport or City:

Astronomy

Oct. 30, 2013 Rise Set
Actual Time 7:00 AM EET 5:32 PM EET
Civil Twilight 6:31 AM EET 6:00 PM EET
Nautical Twilight 5:59 AM EET 6:32 PM EET
Astronomical Twilight 5:28 AM EET 7:04 PM EET
Moon 2:30 AM EET (10/30) 3:08 PM EET (10/30)
Length of Visible Light 11h 28m
Length of Day
10h 32m
Waning Crescent, 19% of the Moon is Illuminated
Oct 30
Waning Crescent
Nov 3
New
Nov 10
First Quarter
Nov 17
Full
Nov 25
Last Quarter

Hourly Weather History & Observations

Time (EET) Temp. Dew Point Humidity Pressure Visibility Wind Dir Wind Speed Gust Speed Precip Events Conditions
12:20 AM 57.2 °F 41.0 °F 55% 30.09 in - NNW 4.6 mph - N/A   Unknown
12:50 AM 55.4 °F 41.0 °F 58% 30.09 in - Variable 3.5 mph - N/A   Unknown
1:20 AM 53.6 °F 41.0 °F 62% 30.09 in - North 5.8 mph - N/A   Unknown
1:50 AM 53.6 °F 41.0 °F 62% 30.09 in - NNW 4.6 mph - N/A   Unknown
2:20 AM 53.6 °F 41.0 °F 62% 30.09 in - North 6.9 mph - N/A   Unknown
2:50 AM 51.8 °F 41.0 °F 67% 30.09 in - NNW 5.8 mph - N/A   Unknown
3:20 AM 53.6 °F 41.0 °F 62% 30.09 in - NNW 4.6 mph - N/A   Unknown
3:50 AM 51.8 °F 41.0 °F 67% 30.09 in - Variable 3.5 mph - N/A   Unknown
4:20 AM 51.8 °F 41.0 °F 67% 30.09 in - NNW 5.8 mph - N/A   Unknown
4:50 AM 51.8 °F 41.0 °F 67% 30.09 in - NNW 5.8 mph - N/A   Unknown
5:20 AM 50.0 °F 41.0 °F 71% 30.09 in - Variable 2.3 mph - N/A   Unknown
5:50 AM 51.8 °F 41.0 °F 67% 30.09 in - NNW 5.8 mph - N/A   Unknown
6:20 AM 51.8 °F 41.0 °F 67% 30.09 in - NNW 4.6 mph - N/A   Unknown
6:50 AM 50.0 °F 41.0 °F 71% 30.09 in - North 4.6 mph - N/A   Unknown
7:20 AM 50.0 °F 41.0 °F 71% 30.09 in - NNW 5.8 mph - N/A   Unknown
7:50 AM 53.6 °F 41.0 °F 62% 30.12 in 5.0 mi Calm Calm - N/A   Unknown
8:50 AM 55.4 °F 44.6 °F 67% 30.12 in 5.6 mi Calm Calm - N/A   Unknown
9:50 AM 59.0 °F 46.4 °F 63% 30.15 in 5.6 mi Calm Calm - N/A   Unknown
10:50 AM 64.4 °F 46.4 °F 52% 30.15 in - Calm Calm - N/A   Clear
11:50 AM 66.2 °F 46.4 °F 49% 30.12 in - Calm Calm - N/A   Clear
12:50 PM 69.8 °F 44.6 °F 40% 30.12 in - Calm Calm - N/A   Clear
1:50 PM 69.8 °F 44.6 °F 40% 30.09 in - Calm Calm - N/A   Clear
2:20 PM 69.8 °F 42.8 °F 38% 30.09 in - Variable 3.5 mph - N/A   Unknown
2:50 PM 69.8 °F 44.6 °F 40% 30.09 in - Variable 3.5 mph - N/A   Unknown
3:20 PM 71.6 °F 44.6 °F 38% 30.09 in - Variable 3.5 mph - N/A   Unknown
3:50 PM 69.8 °F 44.6 °F 40% 30.09 in - Variable 3.5 mph - N/A   Unknown
4:20 PM 68.0 °F 44.6 °F 43% 30.09 in - Variable 3.5 mph - N/A   Unknown
4:50 PM 66.2 °F 44.6 °F 46% 30.09 in - Variable 2.3 mph - N/A   Unknown
5:20 PM 64.4 °F 44.6 °F 49% 30.09 in - Variable 2.3 mph - N/A   Unknown
5:50 PM 60.8 °F 44.6 °F 55% 30.09 in - Variable 2.3 mph - N/A   Unknown
6:20 PM 59.0 °F 44.6 °F 59% 30.12 in - Variable 2.3 mph - N/A   Unknown
6:50 PM 57.2 °F 44.6 °F 63% 30.12 in - Variable 2.3 mph - N/A   Unknown
7:20 PM 57.2 °F 44.6 °F 63% 30.12 in - Variable 3.5 mph - N/A   Unknown
7:50 PM 57.2 °F 44.6 °F 63% 30.12 in - NNW 4.6 mph - N/A   Unknown
8:20 PM 55.4 °F 44.6 °F 67% 30.12 in - North 5.8 mph - N/A   Unknown
8:50 PM 55.4 °F 44.6 °F 67% 30.15 in - North 4.6 mph - N/A   Unknown
9:20 PM 55.4 °F 44.6 °F 67% 30.15 in - North 4.6 mph - N/A   Unknown
9:50 PM 55.4 °F 44.6 °F 67% 30.15 in - Variable 3.5 mph - N/A   Unknown
10:20 PM 51.8 °F 42.8 °F 71% 30.15 in - Variable 1.2 mph - N/A   Unknown
10:50 PM 55.4 °F 44.6 °F 67% 30.15 in - North 5.8 mph - N/A   Unknown
11:20 PM 51.8 °F 42.8 °F 71% 30.15 in - NNW 4.6 mph - N/A   Unknown